When you browse on this site, cookies collect data to enhance your experience and personalize the content and advertising you see.
Visit our Privacy Policy to learn more. By continuing to use the site, you agree to this use of cookies and data.
  • In Slovakia
  • List of Countries
  • For 7 days
  • Water Temperature
  • Weather Map
  • Weather Widgets
  • user-avatar
    Login

    Hourly Weather Ordino

    Today, 19 September, Thursday

    Time Temperature Precipitation Wind Pressure Humidity
    00:00 +12°C° 0 mm 1 mps 634 mmHg 82%
    01:00 +12°C° 0 mm 1 mps 634 mmHg 82%
    02:00 +12°C° 0 mm 1 mps 634 mmHg 81%
    03:00 +11°C° 0 mm 1 mps 633 mmHg 81%
    04:00 +11°C° 0 mm 1 mps 633 mmHg 81%
    05:00 +11°C° 0 mm 1 mps 634 mmHg 81%
    06:00 +11°C° 0 mm 1 mps 634 mmHg 81%
    07:00 +13°C° 0 mm 1 mps 635 mmHg 75%
    08:00 +16°C° 0 mm 1 mps 636 mmHg 69%
    09:00 +19°C° 0 mm 1 mps 637 mmHg 63%
    10:00 +19°C° 0.6 mm 1 mps 637 mmHg 63%
    11:00 +20°C° 0.6 mm 1 mps 637 mmHg 64%
    12:00 +20°C° 0.6 mm 1 mps 637 mmHg 64%
    13:00 +19°C° 1.2 mm 1 mps 636 mmHg 68%
    14:00 +19°C° 1.2 mm 1 mps 636 mmHg 73%
    15:00 +16°C° 1.2 mm 0 mps 635 mmHg 77%
    16:00 +15°C° 0.9 mm 0 mps 635 mmHg 81%
    17:00 +14°C° 0.9 mm 0 mps 635 mmHg 85%
    18:00 +13°C° 0.9 mm 0 mps 634 mmHg 89%
    19:00 +12°C° 0.8 mm 0 mps 635 mmHg 90%
    20:00 +13°C° 0.8 mm 1 mps 635 mmHg 91%
    21:00 +13°C° 0.8 mm 1 mps 635 mmHg 92%
    22:00 +12°C° 0.3 mm 1 mps 635 mmHg 92%
    23:00 +12°C° 0.3 mm 1 mps 635 mmHg 92%

    Tomorrow, 20 September, Friday

    Time Temperature Precipitation Wind Pressure Humidity
    00:00 +12°C° 0.3 mm 1 mps 635 mmHg 91%
    01:00 +12°C° 0 mm 1 mps 635 mmHg 91%
    02:00 +11°C° 0 mm 1 mps 634 mmHg 92%
    03:00 +11°C° 0 mm 1 mps 634 mmHg 92%
    04:00 +11°C° 0 mm 1 mps 634 mmHg 92%
    05:00 +11°C° 0 mm 1 mps 634 mmHg 91%
    06:00 +11°C° 0 mm 1 mps 634 mmHg 91%
    07:00 +13°C° 0 mm 1 mps 635 mmHg 86%
    08:00 +15°C° 0 mm 2 mps 636 mmHg 80%
    09:00 +17°C° 0 mm 2 mps 637 mmHg 74%
    10:00 +17°C° 0.4 mm 2 mps 637 mmHg 71%
    11:00 +18°C° 0.4 mm 2 mps 637 mmHg 68%
    12:00 +19°C° 0.4 mm 2 mps 637 mmHg 66%
    13:00 +18°C° 0.6 mm 2 mps 636 mmHg 68%
    14:00 +18°C° 0.6 mm 2 mps 636 mmHg 70%
    15:00 +18°C° 0.6 mm 2 mps 636 mmHg 72%
    16:00 +16°C° 0.2 mm 2 mps 635 mmHg 78%
    17:00 +15°C° 0.2 mm 2 mps 635 mmHg 84%
    18:00 +13°C° 0.2 mm 2 mps 634 mmHg 90%
    19:00 +13°C° 0.1 mm 2 mps 634 mmHg 91%
    20:00 +13°C° 0.1 mm 2 mps 634 mmHg 92%
    21:00 +12°C° 0.1 mm 2 mps 634 mmHg 93%
    22:00 +12°C° 0 mm 2 mps 634 mmHg 91%
    23:00 +12°C° 0 mm 2 mps 634 mmHg 90%

    Day after tomorrow, 21 September, Saturday

    Time Temperature Precipitation Wind Pressure Humidity
    00:00 +12°C° 0 mm 2 mps 633 mmHg 89%
    01:00 +12°C° 0 mm 2 mps 633 mmHg 88%
    02:00 +10°C° 0 mm 2 mps 632 mmHg 88%
    03:00 +10°C° 0 mm 2 mps 632 mmHg 87%
    04:00 +10°C° 0.2 mm 2 mps 632 mmHg 88%
    05:00 +12°C° 0.2 mm 2 mps 632 mmHg 88%
    06:00 +12°C° 0.2 mm 2 mps 631 mmHg 89%
    07:00 +12°C° 1.1 mm 2 mps 632 mmHg 90%
    08:00 +13°C° 1.1 mm 2 mps 632 mmHg 90%
    09:00 +14°C° 1.1 mm 2 mps 632 mmHg 91%
    10:00 +14°C° 1.2 mm 2 mps 632 mmHg 89%
    11:00 +14°C° 1.2 mm 2 mps 632 mmHg 87%
    12:00 +15°C° 1.2 mm 2 mps 632 mmHg 85%
    13:00 +16°C° 0.4 mm 2 mps 632 mmHg 79%
    14:00 +16°C° 0.4 mm 3 mps 632 mmHg 73%
    15:00 +17°C° 0.4 mm 3 mps 632 mmHg 67%
    16:00 +16°C° 0.1 mm 2 mps 631 mmHg 74%
    17:00 +14°C° 0.1 mm 2 mps 631 mmHg 80%
    18:00 +13°C° 0.1 mm 2 mps 630 mmHg 87%
    19:00 +12°C° 0 mm 2 mps 630 mmHg 86%
    20:00 +12°C° 0 mm 2 mps 631 mmHg 85%
    21:00 +12°C° 0 mm 2 mps 631 mmHg 84%
    22:00 +12°C° 0 mm 2 mps 631 mmHg 84%
    23:00 +12°C° 0 mm 2 mps 631 mmHg 85%

    22 September, Sunday

    Time Temperature Precipitation Wind Pressure Humidity
    00:00 +12°C° 0 mm 2 mps 630 mmHg 85%
    01:00 +12°C° 0 mm 2 mps 630 mmHg 86%
    02:00 +12°C° 0 mm 2 mps 630 mmHg 86%
    03:00 +12°C° 0 mm 2 mps 630 mmHg 87%
    04:00 +11°C° 0 mm 1 mps 630 mmHg 87%
    05:00 +11°C° 0 mm 1 mps 630 mmHg 87%
    06:00 +11°C° 0 mm 1 mps 630 mmHg 87%
    07:00 +13°C° 0 mm 1 mps 631 mmHg 81%
    08:00 +15°C° 0 mm 1 mps 632 mmHg 75%
    09:00 +16°C° 0 mm 1 mps 633 mmHg 70%
    10:00 +17°C° 0.2 mm 2 mps 633 mmHg 71%
    11:00 +17°C° 0.2 mm 2 mps 633 mmHg 73%
    12:00 +17°C° 0.2 mm 2 mps 633 mmHg 74%
    13:00 +17°C° 0.3 mm 2 mps 633 mmHg 73%
    14:00 +16°C° 0.3 mm 2 mps 633 mmHg 72%
    15:00 +16°C° 0.3 mm 2 mps 633 mmHg 71%
    16:00 +14°C° 0.1 mm 2 mps 633 mmHg 78%
    17:00 +13°C° 0.1 mm 1 mps 633 mmHg 85%
    18:00 +11°C° 0.1 mm 1 mps 633 mmHg 91%
    19:00 +11°C° 0 mm 1 mps 633 mmHg 93%
    20:00 +11°C° 0 mm 1 mps 633 mmHg 94%
    21:00 +10°C° 0 mm 1 mps 634 mmHg 95%
    22:00 +10°C° 0 mm 1 mps 634 mmHg 95%
    23:00 +10°C° 0 mm 1 mps 634 mmHg 95%

    23 September, Monday

    Time Temperature Precipitation Wind Pressure Humidity
    00:00 +10°C° 0 mm 1 mps 634 mmHg 95%
    01:00 +9°C° 0 mm 1 mps 634 mmHg 95%
    02:00 +9°C° 0 mm 1 mps 635 mmHg 95%
    03:00 +9°C° 0 mm 1 mps 635 mmHg 95%
    04:00 +8°C° 0 mm 1 mps 635 mmHg 94%
    05:00 +8°C° 0 mm 1 mps 635 mmHg 93%
    06:00 +8°C° 0 mm 1 mps 635 mmHg 93%
    07:00 +10°C° 0 mm 1 mps 636 mmHg 85%
    08:00 +12°C° 0 mm 1 mps 636 mmHg 77%
    09:00 +14°C° 0 mm 1 mps 637 mmHg 69%
    10:00 +15°C° 0 mm 1 mps 638 mmHg 62%
    11:00 +16°C° 0 mm 1 mps 638 mmHg 55%
    12:00 +18°C° 0 mm 2 mps 638 mmHg 48%
    13:00 +17°C° 0 mm 2 mps 638 mmHg 49%
    14:00 +17°C° 0 mm 2 mps 638 mmHg 51%
    15:00 +17°C° 0 mm 2 mps 637 mmHg 52%
    16:00 +15°C° 0 mm 1 mps 636 mmHg 61%
    17:00 +13°C° 0 mm 1 mps 636 mmHg 70%
    18:00 +10°C° 0 mm 0 mps 635 mmHg 79%
    19:00 +10°C° 0 mm 0 mps 635 mmHg 80%
    20:00 +11°C° 0 mm 1 mps 636 mmHg 81%
    21:00 +10°C° 0 mm 1 mps 636 mmHg 83%
    22:00 +11°C° 0 mm 1 mps 636 mmHg 80%
    23:00 +11°C° 0 mm 1 mps 636 mmHg 77%

    24 September, Tuesday

    Time Temperature Precipitation Wind Pressure Humidity
    00:00 +11°C° 0 mm 1 mps 636 mmHg 73%
    01:00 +11°C° 0 mm 1 mps 635 mmHg 71%
    02:00 +11°C° 0 mm 1 mps 635 mmHg 68%
    03:00 +11°C° 0 mm 1 mps 635 mmHg 65%
    04:00 +11°C° 0 mm 1 mps 635 mmHg 65%
    05:00 +11°C° 0 mm 1 mps 635 mmHg 64%
    06:00 +11°C° 0 mm 1 mps 635 mmHg 63%
    07:00 +14°C° 0 mm 1 mps 636 mmHg 58%
    08:00 +18°C° 0 mm 1 mps 637 mmHg 52%
    09:00 +19°C° 0 mm 0 mps 638 mmHg 46%
    10:00 +22°C° 0 mm 1 mps 639 mmHg 45%
    11:00 +23°C° 0 mm 1 mps 639 mmHg 43%
    12:00 +24°C° 0 mm 1 mps 639 mmHg 41%
    13:00 +24°C° 0 mm 1 mps 638 mmHg 43%
    14:00 +23°C° 0 mm 2 mps 638 mmHg 44%
    15:00 +23°C° 0 mm 2 mps 637 mmHg 46%
    16:00 +21°C° 0 mm 1 mps 637 mmHg 55%
    17:00 +18°C° 0 mm 1 mps 636 mmHg 65%
    18:00 +13°C° 0 mm 0 mps 635 mmHg 74%
    19:00 +13°C° 0 mm 0 mps 635 mmHg 75%
    20:00 +14°C° 0 mm 1 mps 635 mmHg 76%
    21:00 +14°C° 0 mm 1 mps 635 mmHg 76%
    22:00 +14°C° 0 mm 1 mps 635 mmHg 76%
    23:00 +13°C° 0 mm 1 mps 635 mmHg 76%
    Show more